Big Rapids, MI

9:13 AM EST on December 13, 2019 (GMT -0500)
Roben-Hood

Weather History for KRQB - November, 2019

Change the Weather History Date:

Wednesday, November 13, 2019

  Actual Average Record
Temperature  
Mean Temperature 14 °F -  
Max Temperature 23 °F 43 °F 64 °F (1999)
Min Temperature 6 °F 26 °F 6 °F (1986)
Degree Days  
Heating Degree Days 50    
Moisture  
Dew Point 9 °F    
Average Humidity 69    
Maximum Humidity 93    
Minimum Humidity 40    
Precipitation  
Precipitation 0.00 in - - ()
Sea Level Pressure  
Sea Level Pressure 30.15 in    
Wind  
Wind Speed 4 mph ()    
Max Wind Speed 15 mph    
Max Gust Speed 24 mph    
Visibility 9.8 miles    
Events Snow    
Averages and records for this station are not official NWS values.
T = Trace of Precipitation, MM = Missing Value Source: Averaged Metar Reports

Daily Weather History Graph

Daily Weather History Graph

Search for Another Location

Airport or City:

Astronomy

Nov. 13, 2019 Rise Set
Actual Time 7:33 AM EST 5:18 PM EST
Civil Twilight 7:02 AM EST 5:49 PM EST
Nautical Twilight 6:27 AM EST 6:24 PM EST
Astronomical Twilight 5:54 AM EST 6:57 PM EST
Moon 6:20 PM EST 8:26 AM EST
Length of Visible Light 10h 46m
Length of Day
9h 45m
Full, 99% of the Moon is Illuminated
Nov 13
Full
Nov 19
Last Quarter
Nov 26
New
Dec 4
First Quarter
Dec 12
Full

Hourly Weather History & Observations

Time (EST) Temp. Windchill Dew Point Humidity Pressure Visibility Wind Dir Wind Speed Gust Speed Precip Events Conditions
12:15 AM 9.0 °F - 6.8 °F 91% 30.31 in 10.0 mi Calm Calm - N/A   Clear
12:16 AM 8.8 °F - 6.8 °F 92% 30.31 in 10.0 mi Calm Calm - N/A   Clear
12:35 AM 6.8 °F - 4.5 °F 90% 30.31 in 10.0 mi Calm Calm - N/A   Clear
12:55 AM 7.5 °F - 5.2 °F 90% 30.31 in 10.0 mi Calm Calm - N/A   Clear
12:56 AM 7.5 °F - 5.0 °F 89% 30.31 in 10.0 mi Calm Calm - N/A   Clear
1:15 AM 7.3 °F - 5.0 °F 90% 30.32 in 10.0 mi Calm Calm - N/A   Scattered Clouds
1:16 AM 7.5 °F - 5.2 °F 90% 30.32 in 10.0 mi Calm Calm - N/A   Scattered Clouds
1:35 AM 7.9 °F - 5.9 °F 92% 30.30 in 10.0 mi Calm Calm - N/A   Mostly Cloudy
1:55 AM 8.2 °F - 6.3 °F 92% 30.30 in 10.0 mi Calm Calm - N/A   Overcast
1:56 AM 8.4 °F - 6.3 °F 91% 30.30 in 10.0 mi Calm Calm - N/A   Overcast
2:15 AM 9.3 °F - 7.2 °F 91% 30.29 in 10.0 mi Calm Calm - N/A   Overcast
2:35 AM 9.3 °F - 7.3 °F 92% 30.29 in 10.0 mi Calm Calm - N/A   Overcast
2:55 AM 9.1 °F - 7.0 °F 91% 30.29 in 10.0 mi Calm Calm - N/A   Mostly Cloudy
2:56 AM 9.1 °F - 7.0 °F 91% 30.29 in 10.0 mi Calm Calm - N/A   Scattered Clouds
3:15 AM 9.0 °F - 6.8 °F 91% 30.29 in 10.0 mi Calm Calm - N/A   Mostly Cloudy
3:35 AM 9.5 °F - 7.5 °F 92% 30.29 in 10.0 mi Calm Calm - N/A   Overcast
3:55 AM 10.4 °F - 8.4 °F 92% 30.28 in 10.0 mi Calm Calm - N/A   Overcast
4:15 AM 11.7 °F - 9.7 °F 92% 30.28 in 10.0 mi Calm Calm - N/A   Overcast
4:35 AM 12.2 °F - 10.4 °F 92% 30.27 in 7.0 mi Calm Calm - N/A Snow Light Snow
4:55 AM 13.5 °F - 11.7 °F 93% 30.26 in 10.0 mi Calm Calm - N/A Snow Light Snow
5:15 AM 14.2 °F 8.4 °F 12.6 °F 93% 30.25 in 5.0 mi SE 3.5 mph - N/A Snow Light Snow
5:35 AM 14.9 °F 7.5 °F 13.1 °F 93% 30.24 in 10.0 mi SSE 4.6 mph - N/A Snow Light Snow
5:36 AM 14.9 °F 6.1 °F 13.1 °F 93% 30.24 in 10.0 mi SSE 5.8 mph - N/A Snow Light Snow
5:55 AM 15.4 °F 6.8 °F 13.8 °F 93% 30.24 in 10.0 mi South 5.8 mph - N/A Snow Light Snow
6:15 AM 15.8 °F 6.1 °F 14.0 °F 93% 30.23 in 10.0 mi South 6.9 mph - N/A Snow Light Snow
6:35 AM 16.3 °F 6.7 °F 14.0 °F 90% 30.23 in 10.0 mi SSE 6.9 mph - N/A Snow Light Snow
6:36 AM 16.3 °F 5.7 °F 14.0 °F 90% 30.23 in 10.0 mi SSE 8.1 mph - N/A Snow Light Snow
6:55 AM 16.5 °F 8.1 °F 14.4 °F 91% 30.22 in 10.0 mi SSE 5.8 mph - N/A Snow Light Snow
7:15 AM 17.2 °F 8.9 °F 14.9 °F 91% 30.21 in 10.0 mi SSE 5.8 mph - N/A   Overcast
7:16 AM 17.2 °F 8.9 °F 14.9 °F 91% 30.21 in 10.0 mi SSE 5.8 mph - N/A Snow Light Snow
7:35 AM 17.6 °F 7.3 °F 15.4 °F 91% 30.21 in 10.0 mi SSE 8.1 mph - N/A Snow Light Snow
7:55 AM 18.3 °F 10.2 °F 14.9 °F 86% 30.21 in 10.0 mi SSE 5.8 mph - N/A   Overcast
8:15 AM 18.5 °F 9.3 °F 13.3 °F 80% 30.21 in 10.0 mi South 6.9 mph - N/A   Overcast
8:16 AM 18.5 °F 9.3 °F 13.3 °F 80% 30.21 in 10.0 mi South 6.9 mph - N/A   Overcast
8:35 AM 18.9 °F 8.8 °F 11.5 °F 73% 30.21 in 10.0 mi South 8.1 mph 19.6 mph N/A   Overcast
8:55 AM 19.0 °F 7.5 °F 10.6 °F 70% 30.22 in 10.0 mi SSE 10.4 mph - N/A   Overcast
9:15 AM 19.0 °F 8.2 °F 8.6 °F 64% 30.22 in 10.0 mi South 9.2 mph 20.7 mph N/A   Overcast
9:35 AM 19.2 °F 9.3 °F 8.1 °F 62% 30.22 in 10.0 mi South 8.1 mph - N/A   Overcast
9:55 AM 19.4 °F 7.9 °F 6.1 °F 56% 30.22 in 10.0 mi South 10.4 mph 16.1 mph N/A   Overcast
9:56 AM 19.4 °F 8.6 °F 5.9 °F 56% 30.22 in 10.0 mi South 9.2 mph 16.1 mph N/A   Overcast
10:15 AM 19.4 °F 7.2 °F 3.7 °F 51% 30.21 in 10.0 mi South 11.5 mph 18.4 mph N/A   Overcast
10:35 AM 19.4 °F 9.5 °F 0.5 °F 44% 30.21 in 10.0 mi South 8.1 mph 19.6 mph N/A   Overcast
10:55 AM 19.4 °F 7.9 °F 2.1 °F 47% 30.21 in 10.0 mi South 10.4 mph - N/A   Overcast
11:15 AM 19.2 °F 7.7 °F -0.9 °F 41% 30.20 in 10.0 mi South 10.4 mph 17.3 mph N/A   Overcast
11:16 AM 19.2 °F 7.7 °F -0.8 °F 42% 30.20 in 10.0 mi South 10.4 mph 17.3 mph N/A   Overcast
11:35 AM 19.4 °F 9.5 °F 1.6 °F 46% 30.19 in 10.0 mi South 8.1 mph - N/A   Overcast
11:36 AM 19.4 °F 10.4 °F 1.8 °F 46% 30.19 in 10.0 mi South 6.9 mph - N/A   Overcast
11:55 AM 19.4 °F 6.6 °F 2.8 °F 49% 30.19 in 10.0 mi South 12.7 mph - N/A   Overcast
11:56 AM 19.4 °F 6.6 °F 2.7 °F 48% 30.19 in 10.0 mi South 12.7 mph - N/A   Overcast
12:15 PM 19.4 °F 8.6 °F 1.4 °F 46% 30.18 in 10.0 mi South 9.2 mph 17.3 mph N/A   Overcast
12:35 PM 19.9 °F 7.9 °F 0.7 °F 43% 30.16 in 10.0 mi South 11.5 mph 16.1 mph N/A   Overcast
12:55 PM 20.1 °F 8.1 °F -0.2 °F 41% 30.16 in 10.0 mi South 11.5 mph - N/A   Overcast
1:15 PM 20.3 °F 10.6 °F 0.1 °F 41% 30.14 in 10.0 mi South 8.1 mph 16.1 mph N/A   Overcast
1:16 PM 20.3 °F 9.8 °F -0.0 °F 41% 30.14 in 10.0 mi SSE 9.2 mph - N/A   Overcast
1:35 PM 20.7 °F 7.1 °F -0.2 °F 40% 30.12 in 10.0 mi South 15.0 mph 18.4 mph N/A   Overcast
1:36 PM 20.7 °F 7.1 °F -0.4 °F 40% 30.12 in 10.0 mi SSE 15.0 mph 18.4 mph N/A   Overcast
1:55 PM 20.3 °F 7.7 °F 2.1 °F 45% 30.11 in 10.0 mi South 12.7 mph 24.2 mph N/A   Overcast
1:56 PM 20.3 °F 6.6 °F 2.1 °F 45% 30.11 in 10.0 mi South 15.0 mph 24.2 mph N/A   Overcast
2:15 PM 20.3 °F 9.0 °F 5.9 °F 54% 30.09 in 10.0 mi South 10.4 mph 16.1 mph N/A   Overcast
2:16 PM 20.3 °F 7.7 °F 5.9 °F 54% 30.09 in 10.0 mi South 12.7 mph 17.3 mph N/A   Overcast
2:35 PM 20.3 °F 9.0 °F 4.8 °F 51% 30.08 in 10.0 mi South 10.4 mph 21.9 mph N/A   Overcast
2:55 PM 20.8 °F 12.1 °F 6.6 °F 54% 30.07 in 10.0 mi South 6.9 mph 20.7 mph N/A   Overcast
3:15 PM 20.8 °F 12.1 °F 6.8 °F 55% 30.06 in 10.0 mi South 6.9 mph - N/A   Overcast
3:16 PM 20.8 °F 13.2 °F 6.8 °F 55% 30.06 in 10.0 mi South 5.8 mph 9.2 mph N/A   Overcast
3:35 PM 20.7 °F 10.2 °F 7.7 °F 57% 30.05 in 10.0 mi SSE 9.2 mph 17.3 mph N/A   Overcast
3:55 PM 21.0 °F 12.4 °F 7.3 °F 56% 30.06 in 10.0 mi South 6.9 mph - N/A   Overcast
3:56 PM 21.0 °F 11.4 °F 7.2 °F 55% 30.06 in 10.0 mi South 8.1 mph - N/A   Overcast
4:15 PM 21.2 °F 12.6 °F 7.0 °F 54% 30.05 in 10.0 mi SSE 6.9 mph - N/A   Overcast
4:16 PM 21.2 °F 12.6 °F 6.8 °F 54% 30.05 in 10.0 mi SSE 6.9 mph - N/A   Overcast
4:35 PM 21.6 °F 13.0 °F 6.3 °F 52% 30.05 in 10.0 mi SSE 6.9 mph - N/A   Overcast
4:55 PM 21.6 °F 10.6 °F 7.3 °F 54% 30.05 in 10.0 mi SSE 10.4 mph - N/A   Overcast
4:56 PM 21.6 °F 11.3 °F 7.3 °F 54% 30.05 in 10.0 mi South 9.2 mph - N/A   Overcast
5:15 PM 21.7 °F 11.5 °F 7.7 °F 55% 30.05 in 10.0 mi SSE 9.2 mph - N/A   Overcast
5:35 PM 21.7 °F 12.3 °F 8.4 °F 57% 30.04 in 10.0 mi SSE 8.1 mph - N/A   Overcast
5:55 PM 21.9 °F 13.4 °F 9.3 °F 58% 30.04 in 10.0 mi SSE 6.9 mph - N/A   Overcast
6:15 PM 22.1 °F 14.7 °F 9.3 °F 58% 30.03 in 10.0 mi SSE 5.8 mph - N/A   Overcast
6:35 PM 22.1 °F 13.7 °F 9.5 °F 58% 30.03 in 10.0 mi South 6.9 mph - N/A   Overcast
6:36 PM 22.1 °F 14.7 °F 9.5 °F 58% 30.03 in 10.0 mi South 5.8 mph - N/A   Overcast
6:55 PM 22.3 °F 14.9 °F 10.2 °F 60% 30.03 in 10.0 mi South 5.8 mph - N/A   Overcast
6:56 PM 22.3 °F 16.1 °F 10.2 °F 60% 30.03 in 10.0 mi South 4.6 mph - N/A   Overcast
7:15 PM 22.6 °F 13.4 °F 10.4 °F 59% 30.03 in 10.0 mi South 8.1 mph - N/A   Overcast
7:35 PM 22.6 °F 11.9 °F 10.8 °F 60% 30.03 in 10.0 mi South 10.4 mph - N/A   Overcast
7:36 PM 22.6 °F 13.4 °F 10.8 °F 60% 30.03 in 10.0 mi SSW 8.1 mph - N/A   Overcast
7:55 PM 22.5 °F 14.1 °F 12.2 °F 65% 30.03 in 10.0 mi SSW 6.9 mph - N/A   Overcast
7:56 PM 22.5 °F 15.1 °F 12.2 °F 65% 30.03 in 10.0 mi SSW 5.8 mph - N/A   Overcast
8:15 PM 22.1 °F 15.9 °F 13.5 °F 69% 30.03 in 10.0 mi South 4.6 mph - N/A   Overcast
8:35 PM 22.1 °F 17.4 °F 14.4 °F 72% 30.03 in 7.0 mi South 3.5 mph - N/A Snow Light Snow
8:36 PM 22.1 °F 15.9 °F 14.4 °F 72% 30.03 in 7.0 mi South 4.6 mph - N/A Snow Light Snow
8:55 PM 22.1 °F 15.9 °F 14.7 °F 73% 30.02 in 10.0 mi South 4.6 mph - N/A Snow Light Snow
8:56 PM 22.1 °F 17.4 °F 14.7 °F 73% 30.02 in 10.0 mi South 3.5 mph - N/A Snow Light Snow
9:15 PM 22.1 °F - 14.9 °F 74% 30.02 in 10.0 mi Calm Calm - N/A Snow Light Snow
9:35 PM 22.5 °F 17.8 °F 15.1 °F 73% 30.03 in 10.0 mi SSW 3.5 mph - N/A Snow Light Snow
9:36 PM 22.5 °F 17.8 °F 15.1 °F 73% 30.03 in 10.0 mi SSW 3.5 mph - N/A Snow Light Snow
9:55 PM 22.6 °F - 15.6 °F 74% 30.03 in 10.0 mi Calm Calm - N/A   Overcast
9:56 PM 22.6 °F - 15.6 °F 74% 30.03 in 10.0 mi Calm Calm - N/A   Overcast
10:15 PM 23.0 °F 15.8 °F 15.8 °F 74% 30.03 in 10.0 mi SSW 5.8 mph - N/A   Overcast
10:35 PM 23.0 °F 17.0 °F 17.1 °F 78% 30.03 in 10.0 mi SSW 4.6 mph - N/A   Overcast
10:36 PM 23.0 °F 18.4 °F 17.1 °F 78% 30.03 in 10.0 mi SSW 3.5 mph - N/A   Overcast
10:55 PM 22.8 °F 16.7 °F 17.2 °F 79% 30.03 in 5.0 mi SSW 4.6 mph - N/A Snow Light Snow
11:15 PM 23.0 °F 17.0 °F 17.2 °F 79% 30.02 in 10.0 mi SSW 4.6 mph - N/A   Overcast
11:16 PM 23.0 °F 15.8 °F 17.2 °F 79% 30.02 in 10.0 mi SSW 5.8 mph - N/A   Overcast
11:35 PM 23.0 °F 18.4 °F 17.4 °F 79% 30.02 in 10.0 mi SSW 3.5 mph - N/A Snow Light Snow
11:55 PM 23.0 °F 15.8 °F 18.0 °F 81% 30.02 in 10.0 mi SW 5.8 mph - N/A Snow Light Snow